Total_Precipitation_Accumulation
2.53 2.55 2.55 2.50 2.35 2.42 2.69 2.87 2.85 3.20 3.38 3.01 2.62 2.44 2.45 2.55 2.42 2.39 2.25 2.13 2.09 2.32 2.79 3.06 2.97 2.78 2.52 2.27 2.10 2.03 1.87 1.69 1.59 1.46 1.39 1.49 1.52 1.48 1.43 1.41 1.37 1.31 1.28
2.73 2.89 2.82 2.73 2.55 2.51 2.66 2.85 3.02 3.50 3.48 3.33 2.92 2.65 2.56 2.52 2.33 2.25 2.36 2.51 2.34 2.26 2.43 2.83 3.18 3.17 3.03 2.77 2.45 2.30 2.14 2.03 1.84 1.51 1.35 1.43 1.53 1.55 1.55 1.55 1.49 1.40 1.34
2.78 2.79 2.65 2.56 2.59 2.68 2.87 2.90 3.12 3.36 3.07 3.10 2.94 2.72 2.51 2.31 2.15 2.12 2.29 2.46 2.32 2.28 2.45 2.71 3.02 3.15 3.32 3.39 3.27 3.04 2.60 2.26 2.05 1.78 1.53 1.47 1.50 1.48 1.47 1.52 1.53 1.43 1.30
2.60 2.83 2.62 2.47 2.78 2.79 2.94 3.24 3.41 3.36 3.31 3.34 3.10 2.71 2.46 2.36 2.03 1.91 1.88 2.05 2.29 2.07 2.40 2.68 2.78 2.93 3.34 3.76 4.02 3.99 3.57 3.03 2.57 2.24 1.95 1.76 1.71 1.57 1.38 1.31 1.38 1.36 1.21
2.63 2.94 2.93 3.00 3.02 3.12 3.18 3.02 3.46 3.52 3.41 3.44 3.02 2.81 2.47 2.18 1.99 1.80 1.72 1.71 1.93 2.15 2.29 2.36 2.49 2.67 3.20 4.03 4.38 4.46 4.39 3.92 3.22 2.80 2.61 2.42 2.26 1.96 1.64 1.45 1.40 1.34 1.24
2.74 3.16 3.02 3.00 3.05 3.22 3.30 3.27 3.44 3.48 3.22 3.19 2.90 2.82 2.42 1.95 1.84 1.79 1.62 1.62 1.73 1.77 2.09 2.42 2.65 2.41 2.77 3.42 3.88 4.44 4.80 4.53 3.83 3.37 3.21 3.07 2.96 2.61 2.06 1.75 1.65 1.54 1.41
2.76 3.21 3.03 3.27 3.20 3.20 3.21 3.26 3.40 3.32 3.04 3.24 3.33 2.92 2.36 1.92 1.89 1.67 1.61 1.66 1.71 1.70 2.04 2.46 2.73 2.67 2.41 2.50 2.89 3.44 4.18 4.50 4.26 3.86 3.66 3.46 3.44 3.17 2.54 2.16 1.99 1.78 1.66
2.97 3.01 3.19 3.13 3.19 3.31 3.25 3.24 3.38 3.18 2.83 3.11 3.46 3.54 2.87 2.45 1.99 1.51 1.62 1.73 1.88 1.97 2.06 2.19 2.40 2.66 2.65 2.77 2.52 2.47 3.16 4.03 4.50 4.42 4.06 3.58 3.37 3.23 2.89 2.66 2.38 2.14 2.01
3.19 3.20 3.16 3.05 3.06 2.87 2.94 3.03 3.04 3.06 2.99 2.94 3.27 3.62 3.19 2.69 2.34 1.77 1.63 1.65 1.90 2.19 2.23 2.25 2.29 2.53 2.68 3.08 3.16 2.83 2.68 3.11 3.91 4.70 4.68 4.03 3.38 3.06 2.97 2.91 2.79 2.52 2.32
2.99 2.82 2.75 2.90 2.92 2.70 2.74 2.41 2.56 2.76 2.79 2.64 2.92 3.01 3.05 3.03 2.93 2.26 1.81 1.64 1.80 2.01 2.21 2.16 2.19 2.44 2.72 3.02 3.30 3.17 2.71 2.51 2.88 3.87 4.50 4.41 3.89 3.35 3.05 3.04 3.28 3.21 2.82
2.72 2.40 2.41 2.60 2.56 2.47 2.39 2.29 2.44 2.35 2.32 2.39 2.62 2.82 2.90 2.98 2.86 2.68 2.25 2.18 2.12 1.98 1.96 2.05 2.27 2.41 2.64 2.96 3.30 3.08 2.91 2.68 2.50 2.70 3.25 3.71 3.87 3.69 3.52 3.73 4.18 4.36 4.07
2.39 2.13 2.02 2.19 2.29 2.32 2.29 2.27 2.35 2.27 2.31 2.45 2.46 2.52 2.75 2.76 2.73 2.89 2.49 2.33 2.31 2.06 2.03 2.14 2.18 2.39 2.50 2.74 2.83 2.95 2.85 2.63 2.46 2.42 2.58 2.88 3.16 3.32 3.44 3.79 4.35 4.76 4.94
2.02 1.99 2.00 2.08 2.12 2.18 2.06 2.13 2.21 2.28 2.45 2.52 2.43 2.37 2.49 2.54 2.66 2.90 2.86 2.58 2.44 2.24 2.32 2.28 2.15 2.22 2.17 2.34 2.46 2.54 2.34 2.21 2.08 2.04 2.11 2.24 2.30 2.50 2.78 3.23 3.80 4.36 4.71
2.01 2.08 2.06 1.92 1.88 1.99 1.88 2.15 2.10 2.19 2.43 2.49 2.25 2.48 2.51 2.53 2.82 3.04 3.13 3.21 2.90 2.61 2.55 2.51 2.38 2.20 2.18 2.22 2.27 2.23 2.02 1.95 1.69 1.67 1.74 1.84 1.91 2.00 2.21 2.51 3.03 3.40 3.55
2.08 2.21 2.17 2.05 1.93 2.01 2.14 2.43 2.39 2.35 2.56 2.54 2.51 2.69 2.64 2.61 2.79 2.92 3.10 3.31 3.39 3.05 2.86 2.83 2.64 2.34 2.22 2.24 2.26 2.03 2.05 1.98 1.74 1.63 1.53 1.48 1.56 1.67 1.74 1.88 2.15 2.34 2.49
1.94 2.14 2.27 2.18 2.07 2.11 2.29 2.49 2.51 2.65 2.81 2.81 2.87 2.93 2.87 2.72 2.83 2.89 2.93 3.18 3.47 3.40 3.06 2.71 2.49 2.22 2.09 1.96 2.18 1.97 1.99 1.99 1.79 1.63 1.45 1.35 1.39 1.46 1.47 1.50 1.60 1.75 1.91
1.90 1.98 2.18 2.25 2.20 2.23 2.34 2.42 2.38 2.69 2.82 2.84 2.82 2.81 2.77 2.88 2.89 2.81 2.91 3.08 3.34 3.43 3.07 2.55 2.43 2.37 2.35 2.26 2.27 2.12 1.98 1.89 1.68 1.56 1.43 1.40 1.39 1.41 1.44 1.45 1.48 1.46 1.51
1.94 1.97 2.11 2.15 2.05 2.06 2.27 2.31 2.36 2.63 2.78 2.67 2.66 2.66 2.46 2.51 2.57 2.46 2.60 2.68 2.82 3.06 3.01 2.70 2.64 2.59 2.54 2.41 2.40 2.35 2.13 1.88 1.61 1.59 1.44 1.40 1.43 1.42 1.42 1.44 1.46 1.45 1.48
1.81 1.87 1.90 1.94 1.99 2.12 2.23 2.23 2.25 2.25 2.27 2.35 2.58 2.68 2.47 2.44 2.34 2.33 2.36 2.35 2.44 2.57 2.79 2.71 2.60 2.63 2.56 2.56 2.47 2.25 2.09 1.97 1.64 1.59 1.57 1.49 1.43 1.37 1.35 1.35 1.36 1.45 1.59
1.66 1.75 1.83 1.93 1.99 2.06 2.11 2.19 2.25 2.17 2.15 2.19 2.33 2.40 2.36 2.33 2.27 2.36 2.26 2.25 2.33 2.48 2.61 2.64 2.57 2.66 2.66 2.60 2.61 2.39 2.38 2.23 2.03 1.80 1.75 1.64 1.64 1.59 1.50 1.39 1.33 1.37 1.52
1.74 1.81 1.88 1.90 1.91 1.90 1.83 1.87 1.95 1.97 2.09 2.05 1.96 1.98 2.00 2.04 2.03 2.06 1.92 2.07 2.30 2.44 2.48 2.49 2.49 2.65 2.81 2.83 2.65 2.57 2.62 2.58 2.37 2.06 1.93 1.78 1.73 1.64 1.61 1.55 1.45 1.36 1.37
1.82 1.86 1.82 1.87 1.88 1.63 1.80 1.82 1.82 1.92 2.00 2.00 1.91 1.81 1.72 1.72 1.66 1.66 1.62 1.70 1.97 2.18 2.30 2.41 2.39 2.50 2.74 2.93 3.03 2.99 2.84 2.72 2.65 2.46 2.33 2.26 2.08 1.98 1.83 1.67 1.63 1.51 1.39
1.94 1.89 1.83 1.83 1.87 1.93 1.97 1.80 1.66 1.63 1.74 1.80 1.78 1.76 1.56 1.47 1.63 1.61 1.63 1.60 1.62 1.77 1.93 2.13 2.22 2.20 2.38 2.66 2.91 2.84 2.95 2.97 2.89 2.88 2.85 2.77 2.46 2.20 1.92 1.73 1.61 1.37 1.25
2.13 2.10 2.04 1.96 1.95 1.92 1.90 1.70 1.69 1.63 1.67 1.69 1.72 1.76 1.74 1.64 1.68 1.80 1.77 1.70 1.58 1.53 1.62 1.70 1.82 1.95 2.18 2.50 2.77 2.74 2.79 2.87 2.90 2.87 2.88 2.85 2.55 2.33 2.06 1.87 1.78 1.50 1.25
2.27 2.18 2.12 2.13 2.06 2.07 2.14 1.95 1.96 1.83 1.84 1.86 1.89 1.89 1.85 1.74 1.86 1.82 1.74 1.73 1.67 1.64 1.68 1.76 1.74 1.86 2.11 2.24 2.41 2.50 2.46 2.52 2.45 2.36 2.48 2.64 2.59 2.47 2.30 2.04 1.80 1.60 1.30
2.30 2.30 2.29 2.25 2.24 2.28 2.52 2.32 2.15 2.01 2.02 2.02 2.11 2.09 2.11 1.94 1.92 1.86 1.72 1.75 1.76 1.75 1.83 1.79 1.77 1.73 1.76 1.97 2.20 2.23 2.39 2.56 2.42 2.21 1.99 2.13 2.30 2.48 2.58 2.32 2.02 1.80 1.66